Weather History for Baker, OR

Change the Weather History Date:

Tuesday, December 4, 2012

  Actual Average Record
Temperature  
Mean Temperature 42 °F 26 °F  
Max Temperature 47 °F 36 °F 58 °F (1975)
Min Temperature 36 °F 17 °F -7 °F (1948)
Degree Days  
Heating Degree Days 23 38  
Month to date heating degree days 89 152  
Since 1 July heating degree days 1892 2189  
Cooling Degree Days 0 0  
Month to date cooling degree days 0 0  
Year to date cooling degree days 184 169  
Moisture  
Dew Point 37 °F    
Average Humidity 76    
Maximum Humidity 92    
Minimum Humidity 60    
Precipitation  
Precipitation 0.17 in 0.03 in 0.62 in (1978)
Month to date precipitation 0.54 0.13  
Year to date precipitation 7.98 9.28  
Sea Level Pressure  
Sea Level Pressure 30.01 in    
Wind  
Wind Speed 16 mph (East)    
Max Wind Speed 25 mph    
Max Gust Speed 33 mph    
Visibility 10 miles    
Events Rain    
T = Trace of Precipitation, MM = Missing Value Source: NWS Daily Summary

Daily Weather History Graph

Daily Weather History Graph

Search for Another Location

Airport:

Trip Planner

Search our weather history database for the weather conditions in past years. The results will help you decide how hot, cold, wet, or windy it might be!

Date:

Astronomy

Dec. 04, 2012 Rise Set
Actual Time 7:12 AM PST 4:10 PM PST
Civil Twilight 6:39 AM PST 4:43 PM PST
Nautical Twilight 6:02 AM PST 5:20 PM PST
Astronomical Twilight 5:27 AM PST 5:55 PM PST
Moon 10:13 PM PST (12/4) 11:00 AM PST (12/4)
Length of Visible Light 10h 04m
Length of Day
8h 58m
Waning Gibbous, 68% of the Moon is Illuminated
Dec 4
Waning Gibbous
Dec 6
Last Quarter
Dec 13
New
Dec 19
First Quarter
Dec 28
Full

Hourly Weather History & Observations

Time (PST) Temp. Windchill Dew Point Humidity Pressure Visibility Wind Dir Wind Speed Gust Speed Precip Events Conditions
12:50 AM 41.0 °F 30.9 °F 28.4 °F 61% 29.96 in 10.0 mi ESE 24.2 mph 31.1 mph N/A   Overcast
12:53 AM 41.0 °F 31.4 °F 28.0 °F 60% 29.98 in 10.0 mi ESE 21.9 mph 31.1 mph N/A   Overcast
1:53 AM 39.9 °F 30.0 °F 30.9 °F 70% 30.04 in 10.0 mi SSE 21.9 mph 33.4 mph 0.00 in Rain Light Rain
2:53 AM 36.0 °F 25.6 °F 33.1 °F 89% 30.03 in 10.0 mi East 18.4 mph 24.2 mph 0.05 in Rain Light Rain
3:09 AM 35.6 °F 25.5 °F 33.8 °F 93% 30.00 in 10.0 mi East 17.3 mph - 0.01 in Rain Light Rain
3:53 AM 36.0 °F 26.7 °F 34.0 °F 93% 30.03 in 10.0 mi East 15.0 mph 24.2 mph 0.01 in   Overcast
4:53 AM 36.0 °F 26.7 °F 34.0 °F 93% 30.04 in 10.0 mi East 15.0 mph - 0.00 in   Overcast
5:11 AM 37.4 °F 27.5 °F 33.8 °F 87% 29.98 in 10.0 mi East 18.4 mph - 0.00 in Rain Light Rain
5:18 AM 37.4 °F 28.9 °F 33.8 °F 87% 29.98 in 10.0 mi East 13.8 mph - 0.00 in Rain Light Rain
5:53 AM 37.0 °F 28.1 °F 35.1 °F 93% 30.04 in 10.0 mi East 15.0 mph 24.2 mph 0.01 in   Overcast
6:07 AM 37.4 °F 29.3 °F 35.6 °F 93% 30.00 in 9.0 mi East 12.7 mph - 0.00 in Rain Light Rain
6:53 AM 37.9 °F 28.2 °F 36.0 °F 93% 30.06 in 10.0 mi East 18.4 mph 23.0 mph 0.02 in Rain Light Rain
7:53 AM 39.0 °F 29.3 °F 36.0 °F 89% 30.06 in 10.0 mi East 19.6 mph 25.3 mph 0.04 in Rain Light Rain
8:24 AM 39.2 °F 29.8 °F 37.4 °F 93% 30.03 in 9.0 mi East 18.4 mph - 0.01 in Rain Light Rain
8:53 AM 39.9 °F 30.8 °F 37.0 °F 89% 30.07 in 10.0 mi East 18.4 mph - 0.02 in Rain Light Rain
9:03 AM 39.2 °F 29.8 °F 37.4 °F 93% 30.02 in 10.0 mi East 18.4 mph 26.5 mph 0.01 in Rain Light Rain
9:53 AM 39.9 °F 31.1 °F 37.9 °F 93% 30.07 in 10.0 mi East 17.3 mph 26.5 mph 0.01 in   Overcast
10:03 AM 41.0 °F 32.5 °F 37.4 °F 87% 30.03 in 10.0 mi East 17.3 mph 25.3 mph N/A   Overcast
10:11 AM 41.0 °F 31.6 °F 37.4 °F 87% 30.03 in 10.0 mi East 20.7 mph - 0.00 in Rain Light Rain
10:53 AM 41.0 °F 32.8 °F 37.9 °F 89% 30.06 in 10.0 mi East 16.1 mph 23.0 mph 0.00 in Rain Light Rain
11:53 AM 42.1 °F 35.2 °F 39.0 °F 89% 30.04 in 10.0 mi East 12.7 mph - 0.00 in   Overcast
12:03 PM 42.8 °F 36.2 °F 39.2 °F 87% 30.00 in 10.0 mi East 12.7 mph - 0.00 in Rain Light Rain
12:53 PM 43.0 °F 35.7 °F 39.0 °F 86% 30.02 in 10.0 mi East 15.0 mph - 0.00 in   Overcast
1:53 PM 43.0 °F 35.1 °F 39.0 °F 86% 30.00 in 10.0 mi East 17.3 mph 25.3 mph 0.00 in   Scattered Clouds
2:53 PM 43.0 °F 35.7 °F 39.0 °F 86% 30.00 in 10.0 mi East 15.0 mph - N/A   Overcast
3:53 PM 43.0 °F 35.4 °F 39.0 °F 86% 30.00 in 10.0 mi East 16.1 mph - 0.00 in Rain Light Rain
4:53 PM 42.1 °F 34.9 °F 39.0 °F 89% 30.00 in 10.0 mi ENE 13.8 mph - 0.01 in   Mostly Cloudy
5:53 PM 42.1 °F 33.6 °F 39.0 °F 89% 29.98 in 10.0 mi East 18.4 mph - N/A   Mostly Cloudy
6:53 PM 42.1 °F 35.2 °F 39.0 °F 89% 29.98 in 10.0 mi East 12.7 mph - N/A   Mostly Cloudy
7:53 PM 43.0 °F 36.0 °F 39.9 °F 89% 29.97 in 10.0 mi East 13.8 mph - 0.00 in Rain Light Rain
8:53 PM 44.1 °F 37.1 °F 41.0 °F 89% 29.96 in 10.0 mi ESE 15.0 mph - 0.00 in Rain Light Rain
9:53 PM 46.0 °F 38.8 °F 41.0 °F 83% 29.95 in 10.0 mi SE 18.4 mph - 0.00 in   Overcast
10:53 PM 46.9 °F - 41.0 °F 80% 29.92 in 10.0 mi ESE 15.0 mph - 0.00 in   Overcast
11:53 PM 46.9 °F - 41.0 °F 80% 29.92 in 10.0 mi SE 13.8 mph - N/A   Overcast